Weather History for Valdosta Regional, GA

Change the Weather History Date:

Friday, May 10, 2013

  Actual Average Record
Temperature  
Mean Temperature 75 °F 72 °F  
Max Temperature 90 °F 85 °F 97 °F (2011)
Min Temperature 59 °F 59 °F 54 °F (1997)
Cooling Degree Days 10 8  
Month to date cooling degree days 48 65  
Year to date cooling degree days 314 200  
Growing Degree Days 24 (Base 50)    
Moisture  
Dew Point 58 °F    
Average Humidity 58    
Maximum Humidity 84    
Minimum Humidity 32    
Precipitation  
Precipitation 0.00 in 0.06 in 0.14 in (1951)
Month to date precipitation T 0.64  
Year to date precipitation 14.54 17.11  
Sea Level Pressure  
Sea Level Pressure 30.09 in    
Wind  
Wind Speed 4 mph (South)    
Max Wind Speed 14 mph    
Max Gust Speed 20 mph    
Visibility 9 miles    
Events      
T = Trace of Precipitation, MM = Missing Value Source: NWS Daily Summary

Daily Weather History Graph

Daily Weather History Graph

Search for Another Location

Airport:

Trip Planner

Search our weather history database for the weather conditions in past years. The results will help you decide how hot, cold, wet, or windy it might be!

Date:

Astronomy

May. 10, 2013 Rise Set
Actual Time 6:41 AM EDT 8:17 PM EDT
Civil Twilight 6:15 AM EDT 8:44 PM EDT
Nautical Twilight 5:43 AM EDT 9:15 PM EDT
Astronomical Twilight 5:11 AM EDT 9:48 PM EDT
Moon 7:05 AM EDT (5/10) 9:04 PM EDT (5/10)
Length of Visible Light 14h 28m
Length of Day
13h 36m
New Moon, 0% of the Moon is Illuminated
May 10
New Moon
May 18
First Quarter
May 25
Full
May 31
Last Quarter
Jun 8
New

Hourly Weather History & Observations

Time (EDT) Temp. Heat Index Dew Point Humidity Pressure Visibility Wind Dir Wind Speed Gust Speed Precip Events Conditions
12:53 AM 64.9 °F - 59.0 °F 81% 30.15 in 10.0 mi Calm Calm - N/A   Clear
1:53 AM 63.0 °F - 57.9 °F 84% 30.14 in 8.0 mi Calm Calm - N/A   Clear
2:53 AM 64.0 °F - 57.9 °F 80% 30.12 in 8.0 mi Calm Calm - N/A   Clear
4:53 AM 60.1 °F - 55.0 °F 83% 30.11 in 3.0 mi Calm Calm - N/A   Haze
5:53 AM 60.1 °F - 55.0 °F 83% 30.09 in 5.0 mi Calm Calm - N/A   Haze
6:53 AM 60.1 °F - 55.9 °F 86% 30.09 in 5.0 mi Calm Calm - N/A   Clear
8:53 AM 71.1 °F - 62.1 °F 73% 30.12 in 10.0 mi SSE 3.5 mph - N/A   Clear
9:53 AM 77.0 °F - 60.1 °F 56% 30.11 in 10.0 mi SSE 4.6 mph - N/A   Clear
10:53 AM 81.0 °F 81.3 °F 59.0 °F 47% 30.14 in 10.0 mi South 8.1 mph - N/A   Clear
11:53 AM 84.9 °F 85.0 °F 61.0 °F 44% 30.14 in 10.0 mi South 8.1 mph - N/A   Clear
12:53 PM 87.1 °F 86.7 °F 60.1 °F 40% 30.13 in 10.0 mi South 15.0 mph 19.6 mph N/A   Partly Cloudy
1:53 PM 88.0 °F 86.7 °F 57.0 °F 35% 30.12 in 10.0 mi Variable 6.9 mph - N/A   Scattered Clouds
2:53 PM 88.0 °F 86.7 °F 57.0 °F 35% 30.10 in 10.0 mi Variable 6.9 mph - N/A   Scattered Clouds
3:53 PM 88.0 °F 86.5 °F 55.9 °F 34% 30.06 in 10.0 mi Variable 5.8 mph - N/A   Partly Cloudy
4:53 PM 86.0 °F 84.2 °F 54.0 °F 33% 30.05 in 10.0 mi SSW 10.4 mph - N/A   Clear
5:53 PM 82.9 °F 82.4 °F 57.0 °F 41% 30.03 in 10.0 mi Variable 4.6 mph - N/A   Clear
6:53 PM 82.9 °F 82.1 °F 55.9 °F 39% 30.02 in 10.0 mi SSW 5.8 mph - N/A   Clear
7:53 PM 78.1 °F - 57.0 °F 48% 30.02 in 10.0 mi Calm Calm - N/A   Clear
8:53 PM 70.0 °F - 57.9 °F 65% 30.03 in 10.0 mi Calm Calm - N/A   Clear
9:53 PM 66.0 °F - 57.0 °F 73% 30.06 in 10.0 mi Calm Calm - N/A   Clear
10:53 PM 66.9 °F - 59.0 °F 76% 30.08 in 10.0 mi Calm Calm - N/A   Clear
11:53 PM 66.9 °F - 61.0 °F 81% 30.07 in 10.0 mi Calm Calm - N/A   Clear